www.pogodaiklimat.ru

АРХИВ ПОГОДЫ в Гонолулу

Время (UTC), дата Ветер
(напр.,м/с)
 
Видим.   Явления Облачность Т
(С)
Тd
(С)
f
(%)
Тe
(С)
Тes
(С)
Комфортность

P
(гПа)

Po
(гПа)
Тmin
(С)
Tmax
(С)
R
(мм)
SD
(см)
03:53 22.03 СВ  16 км    2/2 720 м  +24.4  +16.7  62  +28  +28  душно  1018.5  1018.1         
04:53 22.03 СВ  16 км    2/2 720 м  +23.9  +15.6  60  +27  +27  жарко  1019.3  1018.8  +23.9  +28.9     
05:53 22.03 СВ  16 км    2/2 960 м  +23.9  +16.1  62  +27  +27  жарко  1019.9  1019.5         
06:53 22.03 нст  16 км    2/2 990 м  +23.9  +15.6  60  +27  +27  жарко  1020.2  1019.8         
07:53 22.03 В  16 км    2/2 720 м  +23.3  +15.6  62  +28  +28  душно  1020.3  1019.8         
08:53 22.03 СВ  16 км    2/2 750 м  +23.3  +16.1  64  +28  +28  душно  1020.0  1019.5         
09:53 22.03 СВ  16 км    2/2 750 м  +23.3  +16.1  64  +28  +28  душно  1019.6  1019.2         
10:53 22.03 СВ  16 км    2/2 750 м  +23.3  +16.1  64  +28  +28  душно  1018.7  1018.5  +22.8  +23.9     
11:53 22.03 В  16 км    5/5 750 м  +22.8  +16.1  66  +27  +27  душно  1017.9  1017.5         
12:53 22.03 СВ  16 км    8/8 720 м  +22.8  +16.7  68  +27  +27  душно  1017.6  1017.1         
13:53 22.03 СВ  16 км    8/8 720 м  +22.8  +16.7  68  +27  +27  душно  1017.9  1017.5         
14:53 22.03 СВ  16 км    8/8 720 м  +23.3  +16.7  66  +28  +28  душно  1018.4  1018.1         
15:53 22.03 В  16 км    8/8 750 м  +22.2  +16.7  71  +27  +27  душно  1018.9  1018.5         
16:53 22.03 В  16 км    5/5 750 м  +23.3  +16.7  66  +28  +28  душно  1019.5  1019.2  +22.2  +24.4     
17:53 22.03 СВ  16 км    5/5 750 м  +26.1  +17.2  58  +30  +30  душно  1020.3  1019.8         
18:53 22.03 В  16 км    5/5 750 м  +26.1  +16.7  56  +30  +32  душно  1020.8  1020.5         
19:53 22.03 В  7
{9} 
16 км    5/5 750 м  +27.8  +16.1  49  +31  +32  душно  1020.5  1020.2         
20:53 22.03 СВ  16 км    5/5 750 м  +28.9  +15.0  43  +31  +33  жарко  1020.0  1019.5         
21:53 22.03 СВ  4
{9} 
16 км    5/5 750 м  +28.9  +14.4  41  +31  +37  жарко  1019.2  1018.8         
22:53 22.03 С  16 км    5/5 720 м  +28.9  +15.6  44  +32  +35  душно  1018.5  1018.1  +23.3  +29.4     
23:53 22.03 СВ  4
{8} 
16 км    2/2 750 м  +28.9  +15.0  43  +31  +38  жарко  1017.9  1017.5         
00:53 23.03 В  6
{10} 
16 км    2/2 750 м  +27.8  +15.6  47  +31  +33  душно  1017.8  1017.5         
01:53 23.03 СВ  16 км    2/2 720 м  +26.7  +15.6  51  +30  +33  душно  1017.8  1017.5         
02:53 23.03 С  16 км    2/2 720 м  +26.1  +16.1  54  +29  +30  жарко  1018.1  1017.8         
03:53 23.03 С  16 км    2/2 690 м  +24.4  +16.1  60  +28  +28  душно  1018.9  1018.5         
04:53 23.03 СВ  16 км    ясно  +23.9  +16.7  64  +27  +27  жарко  1019.6  1019.2  +23.9  +29.4     
05:53 23.03 С  16 км    2/2 720 м  +23.9  +16.7  64  +27  +27  жарко  1020.0  1019.5         
06:53 23.03 СВ  16 км    5/5 750 м  +23.9  +16.7  64  +27  +27  жарко  1020.7  1020.2         
07:53 23.03 СВ  5
{9} 
16 км    8/8 750 м  +24.4  +16.7  62  +28  +28  душно  1020.6  1020.2         
08:53 23.03 СВ  5
{8} 
16 км  слабый дождь  8/8 1080 м  +23.9  +17.2  66  +28  +28  душно  1020.4  1020.2         
09:53 23.03 СВ  16 км    5/5 660 м  +22.8  +17.2  71  +28  +28  душно  1019.9  1019.5         
10:53 23.03 В  13 км  слабый дождь  10/10 660 м  +22.2  +17.2  73  +27  +27  душно  1019.3  1018.8  +22.2  +24.4     
11:53 23.03 С  16 км    10/10 660 м  +21.1  +17.2  78  +25  +25  комфорт  1018.9  1018.5         
12:53 23.03   16 км    10/10 660 м  +21.1  +17.8  81  +25  +25  комфорт  1018.8  1018.5         
13:53 23.03 С  16 км  слабый дождь  10/10 690 м  +20.6  +17.8  84  +25  +25  комфорт  1018.8  1018.5         
14:53 23.03 СЗ  16 км    8/8 600 м  +20.0  +18.3  90  +23  +23  комфорт  1019.3  1018.8         
15:53 23.03 СЗ  16 км    8/8 600 м  +20.6  +18.3  87  +25  +25  комфорт  1019.8  1019.5         
16:53 23.03 СЗ  16 км  слабый дождь  8/8 600 м  +20.6  +18.3  87  +25  +25  комфорт  1020.5  1020.2  +20.0  +22.2     
17:53 23.03 нст  16 км    8/8 600 м  +22.8  +17.8  73  +28  +29  душно  1021.2  1020.9         
18:53 23.03 В  16 км  слабый дождь  8/8 720 м  +22.8  +18.3  76  +28  +29  душно  1021.2  1020.9         
19:53 23.03 В  6
{10} 
16 км    8/8 900 м  +25.6  +16.7  58  +29  +30  душно  1021.1  1020.9         
20:53 23.03 С  16 км    8/8 750 м  +25.0  +18.3  66  +29  +31  душно  1020.7  1020.2         
21:53 23.03 С  16 км    8/8 600 м  +27.2  +17.8  56  +31  +33  душно  1019.8  1019.5         
22:53 23.03 СВ  16 км    8/8 810 м  +27.2  +16.7  53  +31  +32  душно  1019.1  1018.8  +20.6  +27.8     
23:53 23.03 СВ  16 км    8/8 1200 м  +27.8  +16.1  49  +31  +32  душно  1018.4  1018.1         
00:53 24.03 СВ  6
{9} 
16 км    8/5 930 м
[верхняя] 
+27.2  +15.0  47  +30  +31  душно  1018.0  1017.5         
01:02 24.03 С  5
{10} 
16 км    2/2 60 м  +27.2  +14.4  45  +29  +32  жарко    1017.5         
01:53 24.03 СВ  8
{10} 
16 км    8/8 750 м
[верхняя] 
+26.7  +15.0  49  +29  +30  жарко  1017.7  1017.5         

 

Местоположение метеостанции Honolulu International Airport: широта 21.3275 долгота -157.9431 высота над уровнем моря 3 м.

В архиве по умолчанию представлена погода в Гонолулу за последние 1-2 суток. Обновление информации о фактической погоде в базе происходит ежечасно! Архивные данные за месяц целиком и за предыдущие месяцы Вы можете получить, выбрав интересующий диапазон дат из раскрывающегося списка и нажав кнопку "Ввод!".

Внимание! Архив погоды МЕТАР в базе сайта в настоящее время начинается c 1 января 2011 г. Нет смысла пытаться выбрать более раннюю дату.

Внимание! Время в таблицах - всемирное. Для получения местного времени необходимо прибавить поправку, которая в Гонолулу равна -10 ч.

Ветер - указаны скорость ветра в м/с и направление, откуда дует ветер: С - северный, СВ - северо-восточный, В - восточный, ЮВ - юго-восточный, Ю - южный, ЮЗ - юго-западный, З - западный, СЗ - северо-западный.
Видимость - горизонтальная дальность видимости в метрах или километрах. При видимости от 1 до 10 км при отсутствии осадков обычно наблюдается дымка, при ухудшении видимости до 1 км и менее - туман. В сухую погоду видимость может ухудшаться дымом, пылью или мглою.
Атмосферные явления - указаны явления, наблюдавшиеся в указанный момент времени.
Облачность - указаны через наклонную черту верхняя и нижняя облачность в баллах и высота нижней границы облаков в метрах. Внимание: облачность, как и прочие метеорологические величины в США измеряются автоматическими метеостанциями. Указанные значения в баллах носят условный характер и показывают процент времени, в течение которого, в среднем, лазерный луч высотомера отражался от облаков обратно.
T - Температура воздуха - температура, измеренная на высоте 2 м над землей.
Td - Температура точки росы - температура, при понижении до которой содержащийся в воздухе водяной пар достигнет насыщения.
f - Относительная влажность воздуха - влажноcть воздуха, измеренная на высоте 2 м над землей.
Te - Эффективная температура - температура, которую ощущает одетый по сезону человек в тени. Характеристика душности погоды. При расчете учитывается влияние влажности воздуха и скорости ветра на теплоощущения человека.
Tes - Эффективная температура на солнце - температура, которую ощущает человек, с поправкой на солнечный нагрев. Характеристика знойности погоды. Зависит от высоты солнца над горизонтом, облачности и скорости ветра. Ночью, в пасмурную погоду, а также при ветре 12 м/с и более поправка равна нулю.
P - Атмосферное давление - приведенное к уровню моря атмосферное давление.
Po - Атмосферное давление - измеренное на уровне метеостанции атмосферное давление.
Tmin - Минимальная температура - минимум температуры воздуха на высоте 2 м над землей.
Tmax - Максимальная температура - максимум температуры воздуха на высоте 2 м над землей.
R - Количество осадков - Количество выпавших осадков за 3 или 6 часов, мм.
SD - Снежный покров - Высота снежного покрова, см.